Terug naar catalogus

STARLINK-3766

ActiefCommunicatieVLEO
NORAD 52296·PAYLOAD·🇺🇸 United States

Gelanceerd Apr 21, 2022 vanaf Cape Canaveral Space Force Station

Loading…

Volgende Passages (komende 24 uur)

TLE

VersSource: CelesTrak SupGP

Epoch: Sep 15, 2026, 02:56 UTC

1 52296C 22041AM  26258.12270833  .00031363  00000+0  92727-3 0  2585
2 52296  53.1588 316.5086 0001286  80.6707 147.3200 15.34352913    14

Volg STARLINK-3766 in realtime met AllMySat

Download on the App Store